NOZ82J ENGM-ENTC

Flight info

Callsign NOZ82J
Flight time 1h 31m
Altitude 37000
Route RIBBE DCT GIGNI DCT SOMUB DCT PENNO DCT ATWEG
Aircraft B38M/M-SDE1FGHILORVWXY/HB1

Departure

Time 2026-05-05 15:15
Airport Oslo-Gardermoen International Airport (ENGM)

Arrival

Time 2026-05-05 16:47
Airport Tromsø Airport (ENTC)
Time Latitude Longitude Altitude Speed Heading
2026-05-05 14:37 60.19553 11.09905 687 ft 0 kts 106°
2026-05-05 15:02 60.19556 11.09886 687 ft 3 kts 106°
2026-05-05 15:02 60.19562 11.09847 685 ft 3 kts 106°
2026-05-05 15:02 60.19567 11.09808 682 ft 3 kts 106°
2026-05-05 15:03 60.19570 11.09789 681 ft 0 kts 106°
2026-05-05 15:07 60.19570 11.09793 681 ft 0 kts 92°
2026-05-05 15:07 60.19578 11.09806 681 ft 2 kts 27°
2026-05-05 15:07 60.19585 11.09802 687 ft 0 kts 329°
2026-05-05 15:08 60.19601 11.09768 683 ft 6 kts 313°
2026-05-05 15:08 60.19638 11.09677 686 ft 11 kts 300°
2026-05-05 15:08 60.19665 11.09521 686 ft 13 kts 286°
2026-05-05 15:08 60.19691 11.09333 686 ft 15 kts 285°
2026-05-05 15:09 60.19722 11.09120 686 ft 17 kts 285°
2026-05-05 15:09 60.19752 11.08903 679 ft 16 kts 286°
2026-05-05 15:09 60.19773 11.08757 680 ft 8 kts 281°
2026-05-05 15:09 60.19755 11.08670 680 ft 7 kts 221°
2026-05-05 15:10 60.19704 11.08631 678 ft 9 kts 196°
2026-05-05 15:10 60.19621 11.08582 681 ft 17 kts 196°
2026-05-05 15:10 60.19487 11.08505 680 ft 22 kts 195°
2026-05-05 15:10 60.19330 11.08415 677 ft 23 kts 196°
2026-05-05 15:11 60.19186 11.08332 676 ft 23 kts 196°
2026-05-05 15:11 60.19029 11.08242 675 ft 23 kts 195°
2026-05-05 15:11 60.18870 11.08150 672 ft 23 kts 196°
2026-05-05 15:11 60.18707 11.08056 673 ft 26 kts 196°
2026-05-05 15:12 60.18591 11.07989 672 ft 10 kts 196°
2026-05-05 15:12 60.18538 11.07931 670 ft 8 kts 248°
2026-05-05 15:12 60.18552 11.07778 668 ft 14 kts 288°
2026-05-05 15:12 60.18580 11.07585 668 ft 15 kts 286°
2026-05-05 15:13 60.18615 11.07442 668 ft 7 kts 341°
2026-05-05 15:13 60.18650 11.07459 669 ft 5 kts 17°
2026-05-05 15:13 60.18657 11.07462 669 ft 0 kts 15°
2026-05-05 15:14 60.18689 11.07481 669 ft 17 kts 16°
2026-05-05 15:14 60.19047 11.07689 672 ft 88 kts 16°
2026-05-05 15:14 60.19830 11.08143 677 ft 144 kts 16°
2026-05-05 15:15 60.20921 11.08793 849 ft 172 kts 14°
2026-05-05 15:15 60.22063 11.09485 1613 ft 175 kts 12°
2026-05-05 15:15 60.23254 11.10123 2411 ft 178 kts
2026-05-05 15:15 60.24495 11.10792 3019 ft 192 kts 10°
2026-05-05 15:16 60.25836 11.11372 3677 ft 200 kts 359°
2026-05-05 15:16 60.27244 11.11176 4407 ft 207 kts 348°
2026-05-05 15:16 60.28700 11.10706 5142 ft 218 kts 347°
2026-05-05 15:16 60.30248 11.10177 5757 ft 234 kts 347°
2026-05-05 15:17 60.31919 11.09633 6280 ft 253 kts 348°
2026-05-05 15:17 60.33710 11.09191 6962 ft 262 kts 357°
2026-05-05 15:17 60.35538 11.09545 7891 ft 266 kts
2026-05-05 15:17 60.37399 11.10005 8694 ft 272 kts
2026-05-05 15:18 60.39288 11.10455 9543 ft 276 kts
2026-05-05 15:18 60.41220 11.10905 10267 ft 285 kts
2026-05-05 15:18 60.43253 11.11369 10660 ft 303 kts
2026-05-05 15:18 60.45386 11.11852 11180 ft 314 kts
2026-05-05 15:19 60.47554 11.12343 12058 ft 314 kts
2026-05-05 15:19 60.49738 11.12837 12917 ft 317 kts
2026-05-05 15:19 60.51938 11.13334 13762 ft 319 kts
2026-05-05 15:19 60.54155 11.13834 14516 ft 323 kts
2026-05-05 15:20 60.56406 11.14345 15253 ft 327 kts
2026-05-05 15:20 60.58682 11.14864 16048 ft 331 kts
2026-05-05 15:20 60.60982 11.15387 16823 ft 335 kts
2026-05-05 15:20 60.63321 11.15921 17564 ft 340 kts
2026-05-05 15:21 60.65679 11.16460 18323 ft 343 kts 360°
2026-05-05 15:21 60.68072 11.17005 18943 ft 348 kts 359°
2026-05-05 15:21 60.70489 11.17559 19546 ft 352 kts 359°
2026-05-05 15:21 60.72944 11.18123 20136 ft 357 kts 358°
2026-05-05 15:22 60.75426 11.18693 20732 ft 362 kts 358°
2026-05-05 15:22 60.77911 11.19266 21291 ft 366 kts 358°
2026-05-05 15:22 60.80494 11.19862 21859 ft 371 kts 357°
2026-05-05 15:22 60.83037 11.20449 22401 ft 376 kts 357°
2026-05-05 15:23 60.85688 11.21062 22959 ft 380 kts 356°
2026-05-05 15:23 60.88298 11.21667 23475 ft 385 kts 356°
2026-05-05 15:23 60.90970 11.22290 23910 ft 389 kts 356°
2026-05-05 15:23 60.93670 11.22919 24364 ft 392 kts 356°
2026-05-05 15:24 60.96389 11.23552 24810 ft 395 kts 356°
2026-05-05 15:24 60.99128 11.24192 25242 ft 399 kts 357°
2026-05-05 15:24 61.01897 11.24839 25687 ft 402 kts 357°
2026-05-05 15:24 61.04681 11.25491 26123 ft 405 kts 357°
2026-05-05 15:25 61.07494 11.26151 26544 ft 408 kts 357°
2026-05-05 15:25 61.10329 11.26817 26962 ft 411 kts 357°
2026-05-05 15:25 61.13179 11.27488 27367 ft 414 kts 357°
2026-05-05 15:25 61.16057 11.28167 27751 ft 418 kts 358°
2026-05-05 15:26 61.18951 11.28851 28123 ft 421 kts 358°
2026-05-05 15:26 61.21871 11.29542 28507 ft 424 kts 358°
2026-05-05 15:26 61.24808 11.30238 28874 ft 427 kts 358°
2026-05-05 15:26 61.27774 11.30943 29227 ft 430 kts 358°
2026-05-05 15:27 61.30762 11.31654 29622 ft 433 kts 358°
2026-05-05 15:27 61.33764 11.32371 29958 ft 437 kts 358°
2026-05-05 15:27 61.36795 11.33096 30230 ft 439 kts 359°
2026-05-05 15:27 61.39842 11.33825 30493 ft 442 kts 359°
2026-05-05 15:28 61.42903 11.34560 30768 ft 445 kts 359°
2026-05-05 15:28 61.45988 11.35302 31062 ft 447 kts 359°
2026-05-05 15:28 61.49086 11.36048 31330 ft 450 kts 359°
2026-05-05 15:28 61.52206 11.36801 31616 ft 453 kts 360°
2026-05-05 15:29 61.55308 11.37551 31893 ft 455 kts 360°
2026-05-05 15:29 61.58503 11.38325 32152 ft 458 kts
2026-05-05 15:29 61.61637 11.39087 32423 ft 460 kts
2026-05-05 15:29 61.64823 11.39862 32695 ft 463 kts
2026-05-05 15:30 61.68033 11.40645 32954 ft 465 kts
2026-05-05 15:30 61.71293 11.41441 33235 ft 467 kts
2026-05-05 15:30 61.74479 11.42222 33585 ft 467 kts
2026-05-05 15:30 61.77707 11.43014 33926 ft 467 kts
2026-05-05 15:31 61.80929 11.43807 34195 ft 467 kts
2026-05-05 15:31 61.84158 11.44602 34497 ft 466 kts
2026-05-05 15:31 61.87375 11.45397 34804 ft 466 kts
2026-05-05 15:31 61.90594 11.46193 35103 ft 466 kts
2026-05-05 15:32 61.93815 11.46992 35399 ft 465 kts
2026-05-05 15:32 61.97025 11.47790 35690 ft 465 kts
2026-05-05 15:32 62.00242 11.48564 35956 ft 464 kts
2026-05-05 15:32 62.03457 11.49282 36218 ft 464 kts
2026-05-05 15:33 62.06669 11.50009 36473 ft 464 kts
2026-05-05 15:33 62.09878 11.50740 36727 ft 464 kts
2026-05-05 15:33 62.13093 11.51473 36880 ft 465 kts
2026-05-05 15:34 62.19512 11.52944 36878 ft 462 kts
2026-05-05 15:34 62.24874 11.54177 36876 ft 463 kts
2026-05-05 15:35 62.31230 11.55645 36857 ft 463 kts
2026-05-05 15:35 62.38719 11.57382 36843 ft 463 kts
2026-05-05 15:36 62.44045 11.58623 36832 ft 463 kts
2026-05-05 15:36 62.50451 11.60121 36818 ft 463 kts
2026-05-05 15:37 62.56858 11.61626 36812 ft 463 kts
2026-05-05 15:37 62.63262 11.63137 36823 ft 463 kts
2026-05-05 15:38 62.69667 11.64654 36834 ft 463 kts
2026-05-05 15:38 62.76072 11.66179 36846 ft 463 kts
2026-05-05 15:39 62.82478 11.67710 36866 ft 463 kts
2026-05-05 15:39 62.88890 11.69249 36880 ft 463 kts
2026-05-05 15:40 62.95297 11.70794 36895 ft 463 kts
2026-05-05 15:40 63.01703 11.72345 36894 ft 463 kts
2026-05-05 15:41 63.08106 11.73903 36893 ft 463 kts
2026-05-05 15:41 63.14519 11.75470 36886 ft 463 kts
2026-05-05 15:42 63.20925 11.77042 36889 ft 463 kts
2026-05-05 15:42 63.27332 11.78621 36885 ft 463 kts
2026-05-05 15:43 63.33738 11.80223 36885 ft 464 kts
2026-05-05 15:43 63.36890 11.81950 36719 ft 468 kts 18°
2026-05-05 15:43 63.39920 11.84461 36890 ft 466 kts 15°
2026-05-05 15:44 63.46087 11.89203 36878 ft 470 kts 15°
2026-05-05 15:44 63.52267 11.94043 36877 ft 470 kts 16°
2026-05-05 15:45 63.58438 11.98902 36873 ft 470 kts 16°
2026-05-05 15:45 63.64607 12.03782 36867 ft 470 kts 16°
2026-05-05 15:46 63.70776 12.08684 36864 ft 470 kts 16°
2026-05-05 15:46 63.76939 12.13604 36862 ft 470 kts 16°
2026-05-05 15:47 63.83107 12.18551 36902 ft 470 kts 16°
2026-05-05 15:47 63.89276 12.23523 36918 ft 470 kts 17°
2026-05-05 15:48 63.95432 12.28506 36945 ft 470 kts 17°
2026-05-05 15:48 64.01587 12.33513 36961 ft 470 kts 17°
2026-05-05 15:49 64.07698 12.38507 36963 ft 470 kts 17°
2026-05-05 15:49 64.13855 12.43562 36951 ft 470 kts 17°
2026-05-05 15:50 64.20003 12.48633 36925 ft 469 kts 17°
2026-05-05 15:50 64.26144 12.53723 36891 ft 469 kts 17°
2026-05-05 15:51 64.32275 12.58828 36853 ft 469 kts 17°
2026-05-05 15:51 64.38405 12.63958 36819 ft 469 kts 17°
2026-05-05 15:52 64.44533 12.69110 36815 ft 469 kts 17°
2026-05-05 15:52 64.50658 12.74284 36813 ft 468 kts 17°
2026-05-05 15:53 64.56782 12.79482 36803 ft 468 kts 17°
2026-05-05 15:53 64.62898 12.84697 36806 ft 468 kts 17°
2026-05-05 15:54 64.69011 12.89936 36793 ft 468 kts 17°
2026-05-05 15:54 64.75123 12.95199 36798 ft 468 kts 18°
2026-05-05 15:55 64.81243 13.00494 36786 ft 468 kts 18°
2026-05-05 15:55 64.87352 13.05806 36785 ft 468 kts 18°
2026-05-05 15:56 64.93460 13.11142 36784 ft 468 kts 18°
2026-05-05 15:56 64.99562 13.16499 36775 ft 468 kts 18°
2026-05-05 15:57 65.05630 13.21853 36772 ft 468 kts 18°
2026-05-05 15:57 65.11775 13.27301 36767 ft 468 kts 18°
2026-05-05 15:58 65.17837 13.32702 36760 ft 468 kts 18°
2026-05-05 15:58 65.23933 13.38160 36758 ft 468 kts 18°
2026-05-05 15:59 65.30028 13.43644 36747 ft 468 kts 18°
2026-05-05 15:59 65.36122 13.49155 36742 ft 468 kts 18°
2026-05-05 16:00 65.42207 13.54685 36744 ft 468 kts 18°
2026-05-05 16:00 65.48297 13.60246 36736 ft 468 kts 18°
2026-05-05 16:01 65.54384 13.65833 36738 ft 468 kts 18°
2026-05-05 16:01 65.60465 13.71443 36740 ft 468 kts 19°
2026-05-05 16:02 65.66541 13.77076 36724 ft 468 kts 19°
2026-05-05 16:02 65.72617 13.82737 36739 ft 468 kts 19°
2026-05-05 16:03 65.78690 13.88424 36729 ft 467 kts 19°
2026-05-05 16:03 65.84758 13.94136 36720 ft 468 kts 19°
2026-05-05 16:04 65.90823 13.99874 36719 ft 467 kts 19°
2026-05-05 16:04 65.96881 14.05634 36720 ft 467 kts 19°
2026-05-05 16:05 66.02947 14.11431 36714 ft 467 kts 19°
2026-05-05 16:05 66.09002 14.17248 36715 ft 467 kts 19°
2026-05-05 16:06 66.15021 14.23060 36718 ft 468 kts 19°
2026-05-05 16:06 66.21112 14.28971 36721 ft 467 kts 19°
2026-05-05 16:07 66.27121 14.34833 36721 ft 467 kts 19°
2026-05-05 16:07 66.33172 14.40767 36720 ft 467 kts 20°
2026-05-05 16:08 66.39215 14.46724 36728 ft 467 kts 20°
2026-05-05 16:08 66.45257 14.52710 36722 ft 467 kts 20°
2026-05-05 16:09 66.51297 14.58727 36712 ft 467 kts 20°
2026-05-05 16:09 66.57329 14.64766 36710 ft 467 kts 20°
2026-05-05 16:10 66.63357 14.70834 36706 ft 466 kts 20°
2026-05-05 16:10 66.69379 14.76927 36702 ft 466 kts 20°
2026-05-05 16:11 66.75397 14.83048 36689 ft 466 kts 20°
2026-05-05 16:12 66.87429 14.95385 36688 ft 466 kts 20°
2026-05-05 16:13 67.02410 15.10929 36678 ft 466 kts 20°
2026-05-05 16:13 67.08415 15.17218 36674 ft 466 kts 21°
2026-05-05 16:14 67.20420 15.29894 36674 ft 466 kts 21°
2026-05-05 16:15 67.32417 15.42699 36674 ft 466 kts 21°
2026-05-05 16:16 67.44403 15.55631 36680 ft 468 kts 21°
2026-05-05 16:17 67.53435 15.65465 36681 ft 468 kts 21°
2026-05-05 16:18 67.62450 15.75355 36678 ft 468 kts 21°
2026-05-05 16:19 67.71462 15.85324 36672 ft 468 kts 21°
2026-05-05 16:19 67.80319 15.95199 35816 ft 454 kts 21°
2026-05-05 16:20 67.86087 16.01675 34710 ft 451 kts 21°
2026-05-05 16:20 67.91845 16.08172 33671 ft 448 kts 22°
2026-05-05 16:21 67.97353 16.15921 32396 ft 446 kts 28°
2026-05-05 16:22 68.05371 16.27734 31020 ft 433 kts 28°
2026-05-05 16:22 68.10610 16.35415 30074 ft 426 kts 28°
2026-05-05 16:23 68.14505 16.41149 29274 ft 421 kts 28°
2026-05-05 16:23 68.17063 16.44928 28775 ft 417 kts 28°
2026-05-05 16:23 68.22076 16.52360 27896 ft 406 kts 28°
2026-05-05 16:24 68.24506 16.55974 27448 ft 402 kts 28°
2026-05-05 16:24 68.26933 16.59595 27032 ft 397 kts 28°
2026-05-05 16:24 68.31712 16.66750 26198 ft 389 kts 28°
2026-05-05 16:25 68.34065 16.70284 25787 ft 385 kts 28°
2026-05-05 16:25 68.38707 16.77284 24982 ft 378 kts 29°
2026-05-05 16:25 68.40992 16.80742 24592 ft 375 kts 29°
2026-05-05 16:26 68.45510 16.87603 23816 ft 369 kts 29°
2026-05-05 16:26 68.49958 16.94388 23007 ft 364 kts 30°
2026-05-05 16:27 68.52157 16.97752 22582 ft 361 kts 30°
2026-05-05 16:27 68.54332 17.01088 22196 ft 357 kts 30°
2026-05-05 16:27 68.56483 17.04395 21819 ft 353 kts 30°
2026-05-05 16:27 68.58607 17.07669 21462 ft 349 kts 30°
2026-05-05 16:28 68.60705 17.10909 21097 ft 345 kts 30°
2026-05-05 16:28 68.62789 17.14133 20739 ft 341 kts 30°
2026-05-05 16:28 68.64841 17.17315 20387 ft 338 kts 30°
2026-05-05 16:28 68.66876 17.20477 20041 ft 334 kts 30°
2026-05-05 16:29 68.68891 17.23615 19703 ft 332 kts 30°
2026-05-05 16:29 68.70890 17.26736 19338 ft 329 kts 30°
2026-05-05 16:29 68.72870 17.29832 18999 ft 326 kts 30°
2026-05-05 16:29 68.74829 17.32901 18660 ft 323 kts 30°
2026-05-05 16:30 68.76777 17.35960 18320 ft 321 kts 30°
2026-05-05 16:30 68.78708 17.38999 17988 ft 319 kts 30°
2026-05-05 16:30 68.80624 17.42019 17622 ft 316 kts 30°
2026-05-05 16:30 68.82525 17.45024 17263 ft 313 kts 30°
2026-05-05 16:31 68.84404 17.47998 16955 ft 309 kts 30°
2026-05-05 16:31 68.86273 17.50961 16600 ft 311 kts 30°
2026-05-05 16:31 68.88151 17.53947 16240 ft 311 kts 30°
2026-05-05 16:31 68.90032 17.56942 15883 ft 311 kts 30°
2026-05-05 16:32 68.91907 17.59933 15529 ft 311 kts 30°
2026-05-05 16:32 68.93780 17.62927 15191 ft 310 kts 30°
2026-05-05 16:32 68.95647 17.65917 14842 ft 309 kts 30°
2026-05-05 16:32 68.97504 17.68893 14500 ft 307 kts 30°
2026-05-05 16:33 68.99350 17.71858 14165 ft 305 kts 30°
2026-05-05 16:33 69.01181 17.74805 13838 ft 303 kts 30°
2026-05-05 16:33 69.03003 17.77743 13508 ft 302 kts 29°
2026-05-05 16:33 69.04814 17.80669 13143 ft 300 kts 29°
2026-05-05 16:34 69.06582 17.83728 12760 ft 300 kts 38°
2026-05-05 16:34 69.08086 17.87754 12432 ft 299 kts 44°
2026-05-05 16:34 69.09551 17.91849 12137 ft 297 kts 44°
2026-05-05 16:34 69.11015 17.95926 11851 ft 296 kts 44°
2026-05-05 16:35 69.12472 17.99974 11537 ft 294 kts 44°
2026-05-05 16:35 69.13924 18.04012 11241 ft 293 kts 44°
2026-05-05 16:35 69.15368 18.08034 10951 ft 292 kts 44°
2026-05-05 16:35 69.16805 18.12039 10674 ft 290 kts 44°
2026-05-05 16:36 69.18230 18.16021 10389 ft 289 kts 44°
2026-05-05 16:36 69.19651 18.19996 10108 ft 287 kts 44°
2026-05-05 16:36 69.21060 18.23948 9824 ft 286 kts 44°
2026-05-05 16:36 69.22463 18.27891 9543 ft 284 kts 44°
2026-05-05 16:37 69.23840 18.31766 9246 ft 282 kts 44°
2026-05-05 16:37 69.25222 18.35667 8941 ft 281 kts 44°
2026-05-05 16:37 69.26600 18.39559 8642 ft 279 kts 44°
2026-05-05 16:37 69.27966 18.43427 8339 ft 277 kts 44°
2026-05-05 16:38 69.29324 18.47278 8049 ft 275 kts 45°
2026-05-05 16:38 69.30661 18.51076 7766 ft 272 kts 45°
2026-05-05 16:38 69.31993 18.54808 7548 ft 265 kts 40°
2026-05-05 16:38 69.33461 18.57820 7393 ft 257 kts 33°
2026-05-05 16:39 69.34924 18.60616 7233 ft 250 kts 34°
2026-05-05 16:39 69.36338 18.63343 7089 ft 242 kts 34°
2026-05-05 16:39 69.37712 18.66005 6931 ft 236 kts 34°
2026-05-05 16:39 69.39045 18.68599 6782 ft 229 kts 34°
2026-05-05 16:40 69.40325 18.71099 6702 ft 217 kts 34°
2026-05-05 16:40 69.41546 18.73479 6573 ft 208 kts 33°
2026-05-05 16:40 69.42842 18.74975 6441 ft 196 kts 13°
2026-05-05 16:40 69.44136 18.75866 6326 ft 187 kts 14°
2026-05-05 16:41 69.45385 18.76718 6140 ft 183 kts 14°
2026-05-05 16:41 69.46620 18.77548 5814 ft 182 kts 14°
2026-05-05 16:41 69.47833 18.78354 5521 ft 174 kts 14°
2026-05-05 16:41 69.48974 18.79110 5217 ft 166 kts 14°
2026-05-05 16:42 69.50093 18.79846 4916 ft 165 kts 14°
2026-05-05 16:42 69.51208 18.80580 4623 ft 164 kts 14°
2026-05-05 16:42 69.52317 18.81308 4319 ft 163 kts 14°
2026-05-05 16:42 69.53423 18.82034 4010 ft 163 kts 14°
2026-05-05 16:43 69.54526 18.82766 3701 ft 162 kts 15°
2026-05-05 16:43 69.55619 18.83484 3400 ft 160 kts 14°
2026-05-05 16:43 69.56705 18.84180 3111 ft 159 kts 14°
2026-05-05 16:43 69.57777 18.84870 2818 ft 155 kts 14°
2026-05-05 16:44 69.58791 18.85535 2589 ft 144 kts 15°
2026-05-05 16:44 69.59751 18.86163 2323 ft 139 kts 15°
2026-05-05 16:44 69.60686 18.86791 2051 ft 138 kts 15°
2026-05-05 16:44 69.61621 18.87417 1731 ft 138 kts 15°
2026-05-05 16:45 69.62548 18.88019 1419 ft 135 kts 14°
2026-05-05 16:45 69.63453 18.88639 1158 ft 133 kts 14°
2026-05-05 16:45 69.64360 18.89258 874 ft 135 kts 13°
2026-05-05 16:45 69.65278 18.89865 653 ft 135 kts 13°
2026-05-05 16:46 69.66178 18.90447 375 ft 133 kts 14°
2026-05-05 16:46 69.67090 18.91055 124 ft 132 kts 15°
2026-05-05 16:46 69.67937 18.91623 40 ft 114 kts 13°
2026-05-05 16:46 69.68507 18.92003 29 ft 51 kts 13°
2026-05-05 16:47 69.68702 18.92135 24 ft 9 kts 12°
2026-05-05 16:47 69.68757 18.92094 24 ft 7 kts 303°
2026-05-05 16:47 69.68770 18.91937 24 ft 12 kts 282°
2026-05-05 16:47 69.68771 18.91701 25 ft 11 kts 231°
2026-05-05 16:48 69.68711 18.91659 28 ft 10 kts 187°
2026-05-05 16:48 69.68620 18.91616 28 ft 17 kts 191°
2026-05-05 16:48 69.68482 18.91519 28 ft 18 kts 191°
2026-05-05 16:48 69.68398 18.91500 28 ft 12 kts 180°
2026-05-05 16:49 69.68310 18.91484 30 ft 14 kts 188°
2026-05-05 16:49 69.68212 18.91423 32 ft 15 kts 193°
2026-05-05 16:49 69.68109 18.91354 34 ft 16 kts 193°
2026-05-05 16:49 69.68013 18.91288 36 ft 10 kts 194°
2026-05-05 16:50 69.67993 18.91244 37 ft 3 kts 243°
2026-05-05 16:50 69.67994 18.91168 37 ft 5 kts 283°
2026-05-05 16:50 69.68002 18.91071 37 ft 4 kts 283°
2026-05-05 16:50 69.68005 18.91033 38 ft 1 kts 283°
2026-05-05 16:51 69.68008 18.90992 40 ft 2 kts 283°
2026-05-05 16:51 69.68010 18.90968 40 ft 1 kts 283°
2026-05-05 16:51 69.68011 18.90957 40 ft 0 kts 283°